Weather History for KMLB - January, 2013

Change the Weather History Date:

Saturday, January 5, 2013

  Actual Average Record
Temperature  
Mean Temperature 68 °F 60 °F  
Max Temperature 76 °F 71 °F 84 °F (1972)
Min Temperature 60 °F 49 °F 29 °F (2001)
Degree Days  
Heating Degree Days 0 6  
Month to date heating degree days 1 30  
Since 1 July heating degree days 149 209  
Cooling Degree Days 3 1  
Month to date cooling degree days 8 8  
Year to date cooling degree days 8 8  
Growing Degree Days 18 (Base 50)    
Moisture  
Dew Point 62 °F    
Average Humidity 82    
Maximum Humidity 100    
Minimum Humidity 64    
Precipitation  
Precipitation 0.72 in 0.07 in 0.80 in (1969)
Month to date precipitation 0.74 0.35  
Year to date precipitation 0.74 0.35  
Sea Level Pressure  
Sea Level Pressure 30.24 in    
Wind  
Wind Speed 9 mph (North)    
Max Wind Speed 16 mph    
Max Gust Speed 20 mph    
Visibility 8 miles    
Events Rain    
T = Trace of Precipitation, MM = Missing Value Source: NWS Daily Summary

Daily Weather History Graph

Daily Weather History Graph

Search for Another Location

Airport or City:

Trip Planner

Search our weather history database for the weather conditions in past years. The results will help you decide how hot, cold, wet, or windy it might be!

Date:

Astronomy

Jan. 05, 2013 Rise Set
Actual Time 7:15 AM EST 5:41 PM EST
Civil Twilight 6:49 AM EST 6:06 PM EST
Nautical Twilight 6:20 AM EST 6:36 PM EST
Astronomical Twilight 5:51 AM EST 7:04 PM EST
Moon 12:37 AM EST (1/5) 12:15 PM EST (1/5)
Length of Visible Light 11h 17m
Length of Day
10h 26m
Last Quarter, 44% of the Moon is Illuminated
Jan 5
Last Quarter
Jan 11
New
Jan 18
First Quarter
Jan 26
Full
Feb 3
Last Quarter

Hourly Weather History & Observations

Time (EST) Temp. Dew Point Humidity Pressure Visibility Wind Dir Wind Speed Gust Speed Precip Events Conditions
12:53 AM 61.0 °F 59.0 °F 93% 30.26 in 9.0 mi North 13.8 mph - N/A   Overcast
1:38 AM 60.8 °F 59.0 °F 94% 30.25 in 10.0 mi NNW 8.1 mph - N/A   Overcast
2:07 AM 60.8 °F 59.0 °F 94% 30.25 in 10.0 mi NNW 12.7 mph - N/A   Overcast
2:36 AM 60.8 °F 57.2 °F 88% 30.25 in 10.0 mi NNW 11.5 mph - N/A   Overcast
2:50 AM 60.8 °F 57.2 °F 88% 30.25 in 10.0 mi NNW 12.7 mph - N/A   Overcast
2:53 AM 61.0 °F 57.9 °F 90% 30.25 in 10.0 mi NNW 11.5 mph - N/A   Overcast
3:53 AM 60.1 °F 57.0 °F 90% 30.24 in 10.0 mi North 5.8 mph - N/A   Overcast
4:53 AM 62.1 °F 57.9 °F 86% 30.24 in 10.0 mi North 8.1 mph - N/A   Overcast
5:53 AM 62.1 °F 55.9 °F 80% 30.25 in 10.0 mi North 5.8 mph - N/A   Overcast
6:53 AM 62.1 °F 55.9 °F 80% 30.27 in 10.0 mi NNW 6.9 mph - N/A   Overcast
7:14 AM 60.8 °F 55.4 °F 82% 30.27 in 10.0 mi WNW 4.6 mph - N/A   Overcast
7:53 AM 60.1 °F 55.9 °F 86% 30.28 in 10.0 mi NW 4.6 mph - N/A   Overcast
8:53 AM 64.0 °F 57.0 °F 78% 30.28 in 10.0 mi North 9.2 mph - N/A   Mostly Cloudy
9:06 AM 66.2 °F 55.4 °F 68% 30.28 in 10.0 mi North 10.4 mph - N/A   Scattered Clouds
9:53 AM 69.1 °F 57.0 °F 65% 30.28 in 10.0 mi North 8.1 mph - N/A   Clear
10:53 AM 72.0 °F 59.0 °F 64% 30.28 in 10.0 mi North 12.7 mph - N/A   Clear
11:53 AM 73.9 °F 61.0 °F 64% 30.26 in 10.0 mi NNE 13.8 mph - N/A   Clear
12:53 PM 75.9 °F 62.1 °F 62% 30.22 in 10.0 mi NNE 12.7 mph - N/A   Clear
1:46 PM 75.2 °F 64.4 °F 69% 30.20 in 10.0 mi NE 11.5 mph - N/A   Mostly Cloudy
1:53 PM 75.0 °F 64.0 °F 69% 30.20 in 10.0 mi NNE 11.5 mph - N/A   Mostly Cloudy
2:53 PM 73.9 °F 64.9 °F 73% 30.19 in 10.0 mi NNE 10.4 mph - N/A   Overcast
3:53 PM 72.0 °F 64.9 °F 78% 30.20 in 10.0 mi NNE 8.1 mph - N/A   Overcast
4:12 PM 71.6 °F 64.4 °F 78% 30.20 in 10.0 mi North 8.1 mph - N/A   Overcast
4:53 PM 71.1 °F 66.0 °F 84% 30.20 in 10.0 mi NNE 6.9 mph - 0.00 in   Overcast
5:53 PM 70.0 °F 66.0 °F 87% 30.21 in 10.0 mi North 8.1 mph - N/A   Overcast
6:21 PM 68.0 °F 66.2 °F 94% 30.22 in 2.0 mi NNW 6.9 mph - 0.07 in Rain Rain
6:53 PM 68.0 °F 66.9 °F 96% 30.23 in 2.0 mi NNW 6.9 mph - 0.14 in Rain Rain
7:53 PM 68.0 °F 68.0 °F 100% 30.24 in 2.0 mi NNE 8.1 mph - 0.37 in Rain Rain
8:53 PM 68.0 °F 68.0 °F 100% 30.25 in 2.0 mi North 6.9 mph - 0.10 in   Overcast
9:53 PM 68.0 °F 68.0 °F 100% 30.25 in 2.0 mi NNE 5.8 mph - N/A   Overcast
10:00 PM 68.0 °F 68.0 °F 100% 30.24 in 10.0 mi NNE 5.8 mph - N/A   Overcast
10:30 PM 68.0 °F 68.0 °F 100% 30.24 in 10.0 mi NNE 4.6 mph - N/A   Overcast
10:53 PM 68.0 °F 68.0 °F 100% 30.23 in 5.0 mi NE 4.6 mph - 0.00 in Rain Light Rain
11:09 PM 68.0 °F 68.0 °F 100% 30.23 in 2.5 mi NE 5.8 mph - 0.02 in Rain Rain
11:53 PM 68.0 °F 66.9 °F 96% 30.22 in 3.0 mi East 3.5 mph - 0.09 in Rain Light Rain